エンケ彗星

2P/Encke (2003)

English version
Home page
Updated on June 9, 2013

---------------------------------------------------------------------

・ プロフィール

・ 写真集

・ 軌道要素

Epoch 2003 Dec. 27.0 TT = JDT 2453000.5  
T 2003 Dec. 29.87607 TT                                 Muraoka 
q   0.3384614            (2000.0)            P               Q
n   0.29855759     Peri.  186.49856     -0.94498620     -0.31518115
a   2.2170933      Node   334.58764     +0.30855234     -0.77001796
e   0.8473401      Incl.   11.76958     +0.10861182     -0.55473704
P   3.30
>From 291 observations 1982-2001, mean residual 0".84.  Nongravitational
   parameters A1 = 0.00 +/- 0.00, A2 = -0.0013 +/- 0.0000.

・ 星図

・ 光度変化

        H = 14.2  G = 0.15                [    ,-100]  (              〜2003年 9月20日)
        m1 =  9.8 + 5 logΔ + 25   log r  [-100, -45]  (2003年 9月20日〜2003年11月14日)
        m1 = 10.3 + 5 logΔ +  7.0 log r  [ -45,  20]  (2003年11月14日〜2004年 1月18日)
        m1 = 12.3 + 5 logΔ + 15.7 log r  [  20, 100]  (2004年 1月18日〜2004年 4月 7日)
        H = 14.2  G = 0.15                [ 100,    ]  (2004年 4月 7日〜              )

        ※ 緑色の曲線は、H = 14.2  G = 0.15 の光度曲線です。

---------------------------------------------------------------------

軌道要素は村岡健治氏の計算によるものです。
星図は StellaNavigator Ver.2.0 for Windows (アストロアーツ 編著 / アスキー出版局刊) で作成したものです。
光度グラフはComet for Windowsで作成したものです。

---------------------------------------------------------------------

Copyright(C) Seiichi Yoshida (comet@aerith.net). All rights reserved.